Regional Weather Roundup
Issued by NWS Cleveland, OH

Home | Current Version | Previous Version | Graphics & Text | Print | Product List | Glossary On
Versions: 1 2 3 4 5 6 7 8 9 10 11 12 13 14 15 16 17 18 19 20 21 22 23 24 25 26 27 28 29 30 31 32 33 34 35 36 37 38 39 40 41 42 43 44 45 46 47 48 49 50
000
ASUS41 KCLE 302010
RWRCLE
OHIO REGIONAL WEATHER ROUNDUP
NATIONAL WEATHER SERVICE CLEVELAND, OH
400 PM EDT TUE SEP 30 2014

NOTE: "FAIR" INDICATES FEW OR NO CLOUDS BELOW 12,000 FEET WITH NO
SIGNIFICANT WEATHER AND/OR OBSTRUCTIONS TO VISIBILITY.

OHZ001>008-015>018-024>027-034-035-043-044-302100-
   NORTHWEST OHIO

CITY           SKY/WX    TMP DP  RH WIND       PRES   REMARKS
DEFIANCE       CLOUDY    58  47  66 NE8       29.98S
FINDLAY        CLOUDY    60  49  66 N8        29.96S
TOLEDO EXPRESS CLOUDY    57  49  74 N3        29.97S
TOLEDO EXEC    CLOUDY    59  48  67 NW6       29.98S
LIMA           CLOUDY    58  48  69 N7        29.97S
$$

OHZ009>014-019>023-028>033-038-089-302100-
   NORTHEAST OHIO

CITY           SKY/WX    TMP DP  RH WIND       PRES   REMARKS
CLE-HOPKINS    CLOUDY    60  54  80 N9        29.96R
CLE-LAKEFRONT  CLOUDY    61  54  77 NW10      29.93S
CUY CO. ARPT   CLOUDY    61  59  94 N9        29.94S
LORAIN-ELYRIA  LGT RAIN  62  54  74 N7        29.95S
ASHTABULA      CLOUDY    62  57  83 NW9       29.92R
AKRON-CANTON   PTSUNNY   62  56  80 N10       29.92R
WOOSTER        PTSUNNY   64  55  72 N7        29.93F
MANSFIELD      CLOUDY    61  54  77 W5        29.94S
YOUNGSTOWN     PTSUNNY   68  58  70 NW5       29.90S
$$

OHZ042-051>053-060>062-070>072-077>081-302100-
  SOUTHWEST OHIO

CITY           SKY/WX    TMP DP  RH WIND       PRES   REMARKS
CINC-COVINGTON MOSUNNY   77  57  50 N13       29.91S
CINC-LUNKEN    MOSUNNY   77  59  53 N10       29.90S
HAMILTON       PTSUNNY   72  60  66 N9        29.93S
DAYTON         CLOUDY    61  55  81 N12       29.95F
WRIGHT-PAT AFB CLOUDY    61  56  84 N9        29.94S
DAYTON GENERAL CLOUDY    64  58  80 N10       29.93S
WILMINGTON     PTSUNNY   68  57  68 N14       29.92S
$$

OHZ036-037-039>041-045>050-054>059-063>069-073>076-082>088-302100-
  CENTRAL AND SOUTHEAST OHIO

CITY           SKY/WX    TMP DP  RH WIND       PRES   REMARKS
COLUMBUS       CLOUDY    60  56  86 N14       29.93R
OSU AIRPORT    CLOUDY    59  55  87 N9        29.94R
BOLTON FIELD   CLOUDY    59  57  94 NW10      29.94S
RICKENBACK AFB CLOUDY    60  58  92 N10       29.92S
NEWARK         CLOUDY    64  58  80 NW8       29.91S
MARION         CLOUDY    58  52  80 N7        29.95F
LANCASTER      CLOUDY    68  60  75 NW14G20   29.91S
ZANESVILLE     CLOUDY    66  58  75 CALM      29.90F
NEW PHILLY     CLOUDY    69  59  70 W5        29.90S
$$



USA.gov is the U.S. government's official web portal to all federal, state and local government web resources and services.